QPF
0.00 0.00 0.01 0.02 0.03 0.04 0.03 0.03 0.04 0.04 0.05 0.06 0.06 0.06 0.05 0.05 0.04 0.04 0.03 0.03 0.02 0.02 0.02 0.02 0.01 0.01 0.01 0.01 0.01 0.01 0.01 0.00 0.00 0.00 0.00 0.00 0.00 0.01 0.01 0.01 0.01 0.02 0.02
0.00 0.00 0.01 0.01 0.02 0.02 0.02 0.02 0.02 0.02 0.03 0.03 0.04 0.04 0.04 0.04 0.04 0.03 0.03 0.03 0.02 0.02 0.03 0.03 0.02 0.01 0.01 0.01 0.01 0.01 0.01 0.01 0.01 0.00 0.00 0.00 0.00 0.01 0.01 0.01 0.01 0.02 0.02
0.00 0.00 0.00 0.01 0.02 0.02 0.01 0.01 0.01 0.01 0.01 0.01 0.02 0.03 0.03 0.03 0.03 0.03 0.03 0.02 0.02 0.03 0.03 0.02 0.02 0.01 0.01 0.02 0.01 0.02 0.02 0.02 0.01 0.00 0.00 0.01 0.01 0.02 0.03 0.03 0.02 0.03 0.04
0.00 0.00 0.00 0.00 0.01 0.02 0.01 0.01 0.01 0.01 0.01 0.01 0.01 0.01 0.01 0.02 0.02 0.03 0.03 0.03 0.02 0.02 0.02 0.02 0.02 0.02 0.01 0.01 0.01 0.02 0.03 0.03 0.03 0.00 0.00 0.01 0.02 0.02 0.04 0.05 0.04 0.03 0.05
0.00 0.00 0.00 0.00 0.00 0.01 0.01 0.00 0.01 0.01 0.01 0.01 0.01 0.01 0.01 0.01 0.02 0.02 0.03 0.03 0.03 0.02 0.02 0.02 0.02 0.02 0.02 0.02 0.03 0.04 0.04 0.03 0.02 0.01 0.01 0.02 0.03 0.03 0.03 0.05 0.05 0.03 0.03
0.00 0.00 0.00 0.00 0.00 0.01 0.01 0.00 0.01 0.01 0.01 0.01 0.00 0.00 0.01 0.01 0.01 0.01 0.02 0.02 0.02 0.02 0.01 0.01 0.02 0.02 0.02 0.02 0.03 0.04 0.05 0.04 0.01 0.00 0.01 0.02 0.02 0.02 0.02 0.03 0.04 0.06 0.06
0.00 0.00 0.00 0.00 0.00 0.01 0.00 0.01 0.00 0.01 0.01 0.01 0.00 0.00 0.00 0.00 0.01 0.01 0.01 0.01 0.01 0.01 0.01 0.01 0.02 0.02 0.02 0.03 0.03 0.03 0.04 0.04 0.02 0.01 0.00 0.01 0.03 0.02 0.02 0.03 0.03 0.04 0.06
0.00 0.00 0.00 0.00 0.01 0.01 0.01 0.01 0.01 0.01 0.01 0.01 0.00 0.00 0.00 0.00 0.00 0.01 0.01 0.01 0.00 0.01 0.01 0.01 0.01 0.01 0.02 0.02 0.02 0.02 0.03 0.04 0.03 0.01 0.00 0.01 0.02 0.02 0.02 0.03 0.03 0.03 0.04
0.00 0.00 0.00 0.01 0.01 0.01 0.01 0.01 0.01 0.01 0.01 0.02 0.01 0.01 0.00 0.00 0.00 0.00 0.00 0.00 0.00 0.00 0.00 0.00 0.00 0.01 0.01 0.01 0.02 0.02 0.03 0.03 0.05 0.03 0.01 0.02 0.02 0.03 0.02 0.03 0.03 0.04 0.03
0.00 0.00 0.00 0.01 0.01 0.01 0.01 0.02 0.03 0.03 0.02 0.02 0.03 0.02 0.01 0.00 0.00 0.00 0.00 0.00 0.00 0.00 0.00 0.00 0.00 0.00 0.00 0.01 0.02 0.02 0.03 0.04 0.05 0.03 0.01 0.01 0.01 0.02 0.02 0.03 0.03 0.03 0.03
0.01 0.00 0.00 0.00 0.00 0.01 0.02 0.02 0.04 0.06 0.05 0.03 0.03 0.03 0.01 0.00 0.00 0.00 0.00 0.00 0.00 0.00 0.00 0.00 0.00 0.00 0.00 0.00 0.01 0.02 0.03 0.06 0.06 0.03 0.01 0.01 0.01 0.02 0.02 0.02 0.03 0.02 0.01
0.04 0.02 0.01 0.01 0.01 0.01 0.01 0.02 0.06 0.06 0.06 0.04 0.05 0.04 0.03 0.01 0.00 0.00 0.00 0.00 0.00 0.00 0.00 0.00 0.00 0.00 0.00 0.00 0.00 0.01 0.01 0.02 0.02 0.03 0.01 0.01 0.01 0.01 0.02 0.02 0.02 0.03 0.03
0.08 0.06 0.03 0.02 0.01 0.01 0.02 0.03 0.06 0.08 0.07 0.07 0.05 0.05 0.04 0.02 0.01 0.00 0.00 0.00 0.00 0.00 0.00 0.00 0.00 0.00 0.00 0.00 0.00 0.00 0.00 0.00 0.00 0.01 0.01 0.01 0.01 0.01 0.02 0.02 0.04 0.04 0.02
0.13 0.12 0.08 0.04 0.03 0.03 0.03 0.03 0.04 0.06 0.06 0.06 0.06 0.06 0.06 0.04 0.02 0.01 0.00 0.00 0.00 0.00 0.00 0.00 0.00 0.00 0.00 0.00 0.00 0.00 0.00 0.00 0.00 0.00 0.01 0.00 0.00 0.01 0.01 0.02 0.04 0.05 0.04
0.19 0.21 0.19 0.14 0.13 0.11 0.09 0.08 0.06 0.05 0.05 0.07 0.08 0.08 0.07 0.06 0.04 0.02 0.01 0.00 0.00 0.00 0.00 0.00 0.00 0.00 0.00 0.00 0.00 0.00 0.00 0.00 0.00 0.00 0.00 0.00 0.00 0.00 0.01 0.01 0.01 0.02 0.03
0.21 0.23 0.21 0.19 0.19 0.21 0.19 0.15 0.10 0.08 0.09 0.10 0.10 0.09 0.09 0.08 0.06 0.04 0.01 0.01 0.01 0.00 0.00 0.00 0.00 0.00 0.00 0.00 0.00 0.00 0.00 0.00 0.00 0.00 0.00 0.00 0.00 0.00 0.01 0.01 0.01 0.02 0.02
0.16 0.17 0.18 0.16 0.17 0.19 0.23 0.26 0.18 0.17 0.18 0.18 0.16 0.14 0.11 0.09 0.08 0.07 0.05 0.03 0.02 0.01 0.00 0.00 0.00 0.00 0.00 0.00 0.00 0.00 0.00 0.00 0.00 0.00 0.00 0.00 0.00 0.00 0.00 0.00 0.01 0.01 0.01
0.10 0.11 0.11 0.13 0.16 0.20 0.23 0.25 0.23 0.26 0.26 0.25 0.27 0.23 0.15 0.11 0.10 0.10 0.09 0.07 0.05 0.03 0.01 0.00 0.00 0.00 0.00 0.00 0.00 0.00 0.00 0.00 0.00 0.00 0.00 0.00 0.00 0.00 0.00 0.00 0.00 0.00 0.01
0.06 0.07 0.08 0.09 0.09 0.13 0.18 0.23 0.30 0.35 0.36 0.33 0.33 0.31 0.22 0.16 0.14 0.16 0.13 0.12 0.09 0.08 0.04 0.02 0.01 0.00 0.00 0.00 0.00 0.00 0.00 0.00 0.00 0.00 0.00 0.00 0.00 0.00 0.00 0.00 0.00 0.00 0.00
0.03 0.03 0.03 0.04 0.05 0.06 0.10 0.14 0.18 0.25 0.32 0.36 0.35 0.30 0.28 0.24 0.19 0.21 0.18 0.16 0.14 0.13 0.09 0.05 0.02 0.01 0.01 0.00 0.00 0.00 0.00 0.00 0.00 0.00 0.00 0.00 0.00 0.00 0.00 0.00 0.00 0.00 0.00
0.01 0.01 0.01 0.01 0.01 0.03 0.05 0.08 0.12 0.16 0.22 0.25 0.27 0.26 0.28 0.28 0.27 0.25 0.22 0.21 0.20 0.16 0.12 0.09 0.06 0.04 0.03 0.01 0.02 0.02 0.01 0.00 0.00 0.00 0.00 0.00 0.00 0.00 0.00 0.00 0.00 0.00 0.00
0.01 0.01 0.01 0.00 0.00 0.01 0.02 0.03 0.05 0.09 0.14 0.15 0.18 0.21 0.23 0.25 0.28 0.27 0.27 0.29 0.29 0.24 0.20 0.14 0.09 0.07 0.06 0.03 0.05 0.06 0.05 0.02 0.01 0.00 0.00 0.00 0.00 0.00 0.00 0.00 0.00 0.00 0.00
0.00 0.00 0.01 0.00 0.00 0.01 0.01 0.02 0.04 0.05 0.07 0.08 0.11 0.14 0.16 0.17 0.19 0.21 0.26 0.31 0.34 0.29 0.24 0.20 0.14 0.12 0.09 0.06 0.04 0.07 0.07 0.05 0.05 0.01 0.00 0.00 0.00 0.00 0.00 0.00 0.00 0.00 0.00
0.01 0.02 0.01 0.01 0.01 0.01 0.01 0.01 0.02 0.03 0.03 0.04 0.06 0.10 0.12 0.12 0.14 0.18 0.23 0.26 0.28 0.28 0.25 0.22 0.16 0.14 0.13 0.11 0.08 0.06 0.05 0.06 0.08 0.06 0.02 0.01 0.00 0.00 0.00 0.00 0.00 0.00 0.00
0.04 0.02 0.02 0.02 0.01 0.01 0.01 0.01 0.02 0.02 0.02 0.02 0.03 0.05 0.08 0.10 0.12 0.16 0.18 0.19 0.19 0.20 0.20 0.22 0.18 0.15 0.13 0.13 0.11 0.09 0.08 0.07 0.06 0.08 0.07 0.04 0.02 0.01 0.01 0.01 0.01 0.01 0.00
0.04 0.03 0.04 0.03 0.03 0.02 0.02 0.02 0.02 0.02 0.02 0.02 0.03 0.04 0.05 0.07 0.08 0.09 0.11 0.14 0.16 0.19 0.19 0.19 0.16 0.13 0.12 0.13 0.13 0.12 0.11 0.10 0.08 0.09 0.09 0.07 0.06 0.03 0.01 0.01 0.01 0.01 0.01
MSLP
1013.80 1013.83 1013.99 1014.25 1014.55 1014.84 1015.08 1015.22 1015.29 1015.31 1015.31 1015.35 1015.45 1015.63 1015.85 1016.10 1016.33 1016.51 1016.62 1016.67 1016.68 1016.67 1016.65 1016.66 1016.68 1016.71 1016.74 1016.75 1016.73 1016.68 1016.60 1016.52 1016.44 1016.38 1016.32 1016.27 1016.22 1016.16 1016.10 1016.05 1016.02 1016.02 1016.06
1013.76 1013.85 1014.06 1014.37 1014.71 1015.04 1015.30 1015.47 1015.54 1015.55 1015.54 1015.56 1015.63 1015.77 1015.97 1016.20 1016.41 1016.59 1016.71 1016.78 1016.80 1016.80 1016.81 1016.82 1016.85 1016.88 1016.90 1016.89 1016.86 1016.80 1016.73 1016.66 1016.59 1016.55 1016.52 1016.50 1016.47 1016.43 1016.38 1016.32 1016.28 1016.26 1016.29
1013.78 1013.91 1014.16 1014.49 1014.87 1015.22 1015.50 1015.69 1015.78 1015.81 1015.80 1015.81 1015.86 1015.97 1016.13 1016.32 1016.51 1016.67 1016.78 1016.85 1016.88 1016.90 1016.93 1016.95 1016.99 1017.03 1017.04 1017.03 1016.99 1016.92 1016.85 1016.78 1016.72 1016.70 1016.69 1016.69 1016.69 1016.67 1016.63 1016.59 1016.54 1016.51 1016.51
1013.84 1013.99 1014.26 1014.60 1014.99 1015.35 1015.67 1015.88 1016.01 1016.06 1016.07 1016.08 1016.12 1016.20 1016.33 1016.48 1016.63 1016.76 1016.85 1016.92 1016.96 1017.00 1017.04 1017.09 1017.15 1017.19 1017.21 1017.19 1017.14 1017.06 1016.97 1016.90 1016.85 1016.83 1016.84 1016.87 1016.89 1016.90 1016.88 1016.84 1016.80 1016.76 1016.75
1013.91 1014.07 1014.32 1014.67 1015.05 1015.44 1015.77 1016.03 1016.19 1016.28 1016.32 1016.34 1016.38 1016.45 1016.55 1016.66 1016.77 1016.87 1016.95 1017.01 1017.06 1017.11 1017.18 1017.25 1017.33 1017.38 1017.40 1017.38 1017.32 1017.23 1017.12 1017.03 1016.97 1016.96 1016.98 1017.02 1017.07 1017.10 1017.11 1017.09 1017.05 1017.02 1017.00
1013.95 1014.10 1014.33 1014.66 1015.05 1015.44 1015.80 1016.09 1016.30 1016.43 1016.50 1016.55 1016.60 1016.67 1016.75 1016.84 1016.93 1017.01 1017.07 1017.13 1017.19 1017.26 1017.35 1017.44 1017.54 1017.61 1017.63 1017.61 1017.53 1017.42 1017.29 1017.18 1017.10 1017.08 1017.10 1017.15 1017.21 1017.27 1017.31 1017.31 1017.30 1017.27 1017.24
1013.98 1014.09 1014.30 1014.60 1014.97 1015.37 1015.74 1016.06 1016.30 1016.47 1016.58 1016.66 1016.73 1016.81 1016.89 1016.98 1017.07 1017.14 1017.21 1017.27 1017.34 1017.43 1017.53 1017.65 1017.76 1017.84 1017.87 1017.83 1017.74 1017.61 1017.46 1017.32 1017.22 1017.18 1017.19 1017.25 1017.34 1017.42 1017.48 1017.52 1017.52 1017.51 1017.48
1014.02 1014.07 1014.24 1014.51 1014.86 1015.24 1015.61 1015.93 1016.19 1016.39 1016.53 1016.64 1016.74 1016.84 1016.94 1017.05 1017.14 1017.23 1017.31 1017.38 1017.47 1017.57 1017.70 1017.83 1017.94 1018.03 1018.06 1018.02 1017.91 1017.76 1017.58 1017.42 1017.30 1017.24 1017.26 1017.33 1017.43 1017.55 1017.64 1017.71 1017.73 1017.73 1017.71
1014.11 1014.11 1014.22 1014.44 1014.75 1015.09 1015.43 1015.74 1015.99 1016.19 1016.34 1016.47 1016.60 1016.73 1016.87 1017.00 1017.12 1017.24 1017.34 1017.43 1017.53 1017.65 1017.78 1017.92 1018.04 1018.13 1018.16 1018.11 1017.99 1017.82 1017.63 1017.45 1017.32 1017.27 1017.29 1017.38 1017.51 1017.66 1017.79 1017.89 1017.93 1017.94 1017.92
1014.34 1014.27 1014.32 1014.47 1014.71 1014.99 1015.27 1015.52 1015.73 1015.90 1016.05 1016.19 1016.33 1016.49 1016.66 1016.83 1016.99 1017.14 1017.26 1017.38 1017.49 1017.62 1017.75 1017.89 1018.01 1018.09 1018.12 1018.07 1017.95 1017.77 1017.58 1017.41 1017.28 1017.24 1017.29 1017.41 1017.59 1017.78 1017.95 1018.07 1018.14 1018.15 1018.12
1014.75 1014.61 1014.58 1014.65 1014.79 1014.97 1015.15 1015.31 1015.45 1015.57 1015.69 1015.82 1015.98 1016.16 1016.36 1016.57 1016.76 1016.93 1017.07 1017.20 1017.32 1017.45 1017.58 1017.71 1017.83 1017.91 1017.93 1017.88 1017.77 1017.60 1017.43 1017.27 1017.18 1017.18 1017.27 1017.44 1017.66 1017.90 1018.11 1018.26 1018.35 1018.36 1018.32
1015.34 1015.14 1015.03 1015.00 1015.02 1015.07 1015.12 1015.17 1015.20 1015.25 1015.32 1015.43 1015.59 1015.79 1016.01 1016.24 1016.45 1016.64 1016.79 1016.93 1017.05 1017.16 1017.29 1017.41 1017.52 1017.59 1017.61 1017.57 1017.47 1017.34 1017.19 1017.07 1017.03 1017.07 1017.22 1017.45 1017.73 1018.02 1018.27 1018.46 1018.56 1018.57 1018.53
1016.07 1015.82 1015.63 1015.49 1015.38 1015.28 1015.18 1015.09 1015.02 1014.98 1015.00 1015.08 1015.23 1015.43 1015.66 1015.90 1016.12 1016.31 1016.47 1016.59 1016.70 1016.80 1016.91 1017.02 1017.12 1017.19 1017.22 1017.19 1017.12 1017.01 1016.90 1016.84 1016.84 1016.95 1017.16 1017.45 1017.79 1018.13 1018.42 1018.64 1018.76 1018.78 1018.73
1016.88 1016.58 1016.30 1016.05 1015.80 1015.55 1015.31 1015.09 1014.91 1014.79 1014.75 1014.81 1014.94 1015.14 1015.37 1015.61 1015.82 1016.00 1016.13 1016.24 1016.33 1016.42 1016.52 1016.62 1016.71 1016.79 1016.82 1016.81 1016.75 1016.68 1016.61 1016.59 1016.66 1016.82 1017.08 1017.43 1017.81 1018.20 1018.53 1018.78 1018.92 1018.95 1018.91
1017.63 1017.30 1016.95 1016.59 1016.22 1015.83 1015.46 1015.13 1014.85 1014.67 1014.60 1014.63 1014.76 1014.95 1015.17 1015.39 1015.58 1015.73 1015.84 1015.93 1016.00 1016.08 1016.17 1016.27 1016.36 1016.44 1016.48 1016.48 1016.44 1016.40 1016.36 1016.38 1016.48 1016.69 1016.99 1017.37 1017.78 1018.19 1018.55 1018.83 1018.99 1019.05 1019.03
1018.23 1017.87 1017.47 1017.02 1016.54 1016.05 1015.58 1015.16 1014.84 1014.63 1014.54 1014.56 1014.68 1014.86 1015.05 1015.24 1015.40 1015.53 1015.61 1015.68 1015.75 1015.83 1015.92 1016.03 1016.13 1016.21 1016.26 1016.27 1016.24 1016.20 1016.19 1016.22 1016.33 1016.55 1016.86 1017.25 1017.67 1018.09 1018.46 1018.74 1018.94 1019.03 1019.06
1018.60 1018.21 1017.76 1017.25 1016.70 1016.14 1015.62 1015.17 1014.83 1014.61 1014.52 1014.55 1014.66 1014.82 1014.99 1015.15 1015.27 1015.36 1015.43 1015.50 1015.57 1015.67 1015.78 1015.90 1016.02 1016.12 1016.17 1016.18 1016.15 1016.11 1016.09 1016.11 1016.22 1016.42 1016.71 1017.07 1017.46 1017.86 1018.22 1018.52 1018.73 1018.87 1018.96
1018.72 1018.31 1017.82 1017.27 1016.68 1016.09 1015.56 1015.11 1014.79 1014.59 1014.52 1014.56 1014.66 1014.79 1014.92 1015.04 1015.13 1015.20 1015.26 1015.34 1015.43 1015.56 1015.72 1015.88 1016.03 1016.13 1016.19 1016.20 1016.16 1016.10 1016.06 1016.06 1016.13 1016.29 1016.53 1016.83 1017.18 1017.53 1017.86 1018.14 1018.38 1018.57 1018.71
1018.61 1018.18 1017.67 1017.10 1016.50 1015.92 1015.41 1015.00 1014.71 1014.55 1014.50 1014.53 1014.61 1014.71 1014.80 1014.87 1014.92 1014.97 1015.04 1015.14 1015.29 1015.47 1015.68 1015.89 1016.08 1016.21 1016.27 1016.27 1016.22 1016.14 1016.07 1016.04 1016.06 1016.16 1016.34 1016.57 1016.84 1017.13 1017.40 1017.67 1017.91 1018.13 1018.35
1018.34 1017.89 1017.36 1016.79 1016.21 1015.67 1015.20 1014.84 1014.60 1014.47 1014.43 1014.45 1014.49 1014.53 1014.56 1014.58 1014.60 1014.64 1014.72 1014.87 1015.07 1015.33 1015.60 1015.87 1016.10 1016.27 1016.35 1016.35 1016.29 1016.19 1016.10 1016.03 1016.02 1016.06 1016.17 1016.32 1016.51 1016.71 1016.92 1017.14 1017.37 1017.62 1017.89
1018.01 1017.53 1017.00 1016.44 1015.89 1015.39 1014.98 1014.67 1014.47 1014.35 1014.30 1014.28 1014.27 1014.24 1014.20 1014.16 1014.15 1014.18 1014.29 1014.48 1014.75 1015.08 1015.43 1015.76 1016.04 1016.23 1016.34 1016.35 1016.30 1016.21 1016.11 1016.03 1015.99 1016.00 1016.05 1016.13 1016.23 1016.35 1016.48 1016.64 1016.84 1017.09 1017.40
1017.70 1017.19 1016.65 1016.11 1015.59 1015.14 1014.78 1014.51 1014.33 1014.21 1014.13 1014.06 1013.97 1013.86 1013.74 1013.64 1013.59 1013.62 1013.75 1013.99 1014.32 1014.71 1015.12 1015.51 1015.83 1016.07 1016.20 1016.24 1016.21 1016.15 1016.07 1016.02 1015.99 1015.98 1016.00 1016.02 1016.05 1016.09 1016.15 1016.24 1016.39 1016.62 1016.93
1017.47 1016.94 1016.40 1015.87 1015.38 1014.97 1014.64 1014.39 1014.21 1014.08 1013.95 1013.80 1013.63 1013.43 1013.24 1013.07 1012.98 1013.00 1013.14 1013.42 1013.79 1014.23 1014.69 1015.12 1015.47 1015.74 1015.90 1015.98 1016.00 1015.99 1015.98 1015.98 1015.99 1016.01 1016.03 1016.03 1016.02 1015.99 1015.97 1015.98 1016.07 1016.25 1016.54
1017.36 1016.81 1016.26 1015.74 1015.28 1014.88 1014.57 1014.33 1014.14 1013.97 1013.78 1013.57 1013.31 1013.04 1012.77 1012.55 1012.42 1012.42 1012.56 1012.84 1013.24 1013.69 1014.17 1014.61 1014.99 1015.27 1015.47 1015.60 1015.68 1015.75 1015.82 1015.91 1016.00 1016.08 1016.14 1016.15 1016.12 1016.04 1015.96 1015.90 1015.91 1016.02 1016.26
1017.38 1016.81 1016.25 1015.74 1015.28 1014.89 1014.59 1014.34 1014.12 1013.91 1013.67 1013.40 1013.08 1012.74 1012.41 1012.15 1011.99 1011.96 1012.09 1012.35 1012.73 1013.17 1013.63 1014.06 1014.43 1014.72 1014.95 1015.12 1015.28 1015.43 1015.61 1015.80 1016.00 1016.18 1016.30 1016.35 1016.32 1016.22 1016.09 1015.96 1015.90 1015.94 1016.10
1017.51 1016.93 1016.36 1015.84 1015.38 1014.99 1014.67 1014.41 1014.17 1013.92 1013.65 1013.33 1012.97 1012.59 1012.23 1011.94 1011.75 1011.70 1011.79 1012.02 1012.35 1012.75 1013.16 1013.55 1013.88 1014.17 1014.40 1014.62 1014.84 1015.08 1015.37 1015.67 1015.98 1016.26 1016.46 1016.57 1016.57 1016.47 1016.31 1016.14 1016.01 1015.96 1016.05
Thickness
5804 5802 5793 5791 5789 5787 5785 5784 5782 5781 5779 5777 5775 5773 5772 5770 5769 5767 5766 5765 5765 5764 5764 5764 5765 5766 5766 5767 5768 5769 5771 5773 5775 5777 5779 5780 5781 5781 5782 5782 5782 5783 5779
5809 5802 5794 5791 5789 5787 5785 5783 5782 5780 5778 5776 5775 5773 5771 5769 5768 5767 5766 5765 5764 5763 5763 5763 5763 5764 5764 5764 5765 5766 5768 5770 5772 5774 5776 5777 5778 5778 5779 5779 5780 5780 5777
5808 5802 5794 5791 5789 5787 5785 5783 5781 5779 5778 5776 5774 5772 5770 5769 5767 5766 5765 5764 5763 5763 5762 5762 5762 5762 5762 5763 5763 5764 5765 5766 5768 5770 5774 5777 5776 5775 5775 5775 5775 5775 5774
5807 5802 5797 5791 5789 5787 5785 5783 5781 5779 5777 5775 5774 5772 5770 5768 5766 5765 5764 5763 5762 5762 5761 5761 5761 5761 5761 5761 5762 5762 5763 5764 5765 5768 5773 5774 5775 5771 5772 5772 5772 5772 5771
5805 5801 5795 5790 5788 5786 5784 5782 5780 5779 5777 5775 5773 5772 5770 5768 5766 5765 5763 5762 5761 5761 5760 5759 5759 5759 5759 5759 5760 5760 5761 5762 5763 5766 5769 5769 5769 5768 5768 5768 5768 5768 5768
5803 5799 5793 5789 5787 5785 5783 5782 5780 5778 5776 5775 5773 5771 5770 5768 5766 5765 5763 5762 5761 5760 5759 5759 5758 5758 5758 5758 5758 5759 5760 5761 5763 5765 5766 5767 5767 5764 5764 5765 5765 5765 5765
5802 5798 5793 5787 5785 5783 5782 5780 5779 5777 5776 5774 5772 5771 5769 5768 5766 5765 5764 5762 5761 5760 5759 5758 5757 5757 5757 5757 5757 5758 5758 5760 5764 5764 5764 5765 5763 5762 5761 5762 5762 5762 5762
5802 5797 5793 5785 5784 5782 5781 5779 5778 5776 5775 5773 5772 5770 5769 5768 5766 5765 5763 5762 5761 5759 5758 5757 5757 5756 5756 5756 5756 5757 5757 5758 5762 5764 5763 5763 5760 5759 5759 5759 5759 5760 5760
5800 5797 5794 5790 5785 5781 5780 5778 5777 5775 5774 5772 5770 5769 5768 5767 5765 5764 5763 5761 5760 5759 5758 5757 5756 5756 5755 5755 5755 5756 5756 5758 5761 5762 5763 5762 5758 5758 5758 5757 5757 5758 5758
5798 5796 5794 5791 5789 5786 5782 5778 5776 5774 5773 5771 5769 5768 5767 5765 5764 5763 5762 5761 5760 5759 5758 5757 5756 5755 5755 5754 5754 5755 5756 5757 5760 5761 5762 5760 5757 5757 5757 5756 5756 5756 5756
5792 5793 5793 5792 5789 5787 5785 5781 5776 5774 5772 5770 5769 5767 5766 5767 5767 5764 5764 5761 5759 5758 5757 5756 5755 5755 5755 5755 5754 5754 5755 5759 5759 5761 5760 5756 5755 5755 5755 5755 5755 5755 5755
5785 5788 5790 5789 5788 5786 5783 5781 5778 5777 5774 5772 5772 5769 5768 5769 5769 5767 5763 5760 5758 5758 5757 5756 5755 5755 5755 5759 5757 5756 5760 5759 5760 5760 5758 5754 5754 5754 5754 5754 5754 5753 5753
5781 5782 5784 5784 5784 5783 5781 5779 5778 5776 5774 5773 5772 5770 5769 5769 5767 5765 5764 5761 5759 5758 5760 5757 5756 5759 5760 5761 5761 5761 5761 5761 5762 5760 5758 5753 5753 5753 5753 5753 5752 5752 5752
5771 5772 5776 5778 5779 5779 5778 5776 5774 5773 5773 5773 5771 5770 5768 5767 5767 5767 5765 5764 5762 5761 5760 5760 5760 5761 5761 5762 5762 5763 5762 5762 5761 5760 5756 5753 5752 5752 5752 5751 5751 5751 5751
5759 5762 5766 5770 5771 5772 5773 5771 5770 5771 5771 5771 5769 5768 5766 5765 5765 5766 5765 5762 5762 5762 5760 5759 5760 5762 5761 5762 5762 5763 5763 5762 5761 5760 5757 5752 5751 5751 5751 5751 5750 5750 5750
5750 5753 5756 5760 5762 5763 5765 5765 5766 5767 5766 5766 5766 5765 5764 5763 5762 5762 5763 5762 5761 5760 5760 5759 5760 5760 5760 5761 5761 5761 5761 5762 5761 5760 5758 5754 5751 5750 5749 5749 5749 5749 5748
5741 5744 5747 5751 5753 5755 5757 5759 5760 5762 5761 5761 5761 5761 5761 5760 5760 5759 5760 5760 5760 5758 5759 5758 5759 5758 5758 5759 5759 5760 5760 5760 5760 5760 5758 5756 5754 5750 5748 5748 5748 5747 5747
5734 5736 5739 5743 5745 5747 5749 5751 5753 5756 5756 5756 5756 5755 5755 5756 5756 5756 5755 5756 5756 5756 5756 5756 5756 5755 5756 5757 5758 5759 5760 5757 5757 5758 5757 5756 5754 5753 5749 5747 5746 5746 5745
5725 5728 5730 5733 5736 5739 5741 5744 5746 5749 5750 5751 5750 5750 5751 5751 5752 5751 5751 5752 5753 5751 5752 5752 5753 5753 5753 5754 5755 5756 5758 5757 5757 5755 5757 5757 5755 5751 5751 5746 5744 5744 5743
5716 5719 5721 5724 5727 5730 5733 5737 5740 5743 5744 5745 5746 5747 5747 5747 5747 5747 5746 5747 5747 5747 5746 5747 5748 5747 5748 5749 5751 5752 5753 5754 5754 5754 5755 5754 5753 5752 5751 5748 5746 5744 5742
5704 5707 5710 5713 5716 5719 5722 5725 5729 5733 5736 5739 5741 5742 5743 5743 5743 5743 5743 5743 5743 5742 5742 5743 5743 5742 5742 5746 5744 5743 5747 5750 5753 5751 5751 5752 5751 5751 5748 5747 5747 5746 5743
5691 5695 5699 5702 5706 5709 5711 5715 5719 5724 5728 5732 5735 5737 5738 5740 5740 5740 5740 5740 5739 5738 5738 5738 5738 5736 5737 5739 5737 5733 5732 5737 5742 5747 5747 5746 5749 5748 5746 5747 5746 5744 5743
5680 5683 5687 5690 5695 5699 5702 5706 5710 5715 5719 5723 5726 5730 5732 5735 5736 5737 5737 5737 5737 5736 5734 5733 5733 5730 5729 5732 5736 5732 5725 5724 5734 5741 5744 5744 5744 5745 5745 5744 5745 5744 5742
5669 5673 5676 5679 5683 5687 5691 5694 5698 5702 5706 5712 5717 5722 5726 5729 5731 5732 5732 5733 5732 5731 5730 5730 5730 5728 5725 5723 5726 5729 5730 5730 5724 5726 5733 5739 5741 5740 5740 5741 5740 5741 5740
5659 5661 5665 5668 5671 5674 5679 5683 5687 5692 5698 5704 5709 5713 5717 5721 5724 5726 5727 5728 5727 5727 5727 5726 5725 5724 5723 5721 5720 5721 5721 5721 5723 5720 5718 5725 5729 5733 5734 5735 5735 5734 5735
5650 5652 5655 5657 5660 5663 5667 5673 5677 5682 5688 5693 5699 5704 5708 5713 5716 5719 5721 5721 5722 5722 5723 5722 5721 5720 5719 5718 5718 5717 5716 5713 5713 5714 5712 5714 5717 5723 5725 5726 5727 5727 5726